Location: Kempten
(47.7167°N, 10.3167°E)
Time: 21:55:29
(UTC+02:00)

STARLINK-2753 - Pass Details

Date: 23 June 2021
Orbit: 345 x 354 km, 53.0° (Epoch: 31 July)

Event Time Altitude Azimuth Distance (km) Brightness Sun altitude
Exits shadow 03:15:59 - 134° (SE) 2,238 6.6 -14.3°
Enters shadow 04:11:32 -74° 244° (WSW) 12,632 10.4 -9.2°
Maximum altitude 04:51:35 23° 138° (SE) 882 4.7 -4.6°
